Regional Weather Roundup
Issued by NWS

Home | Current Version | Previous Version | Text Only | Print | Product List | Glossary Off
Versions: 1 2 3 4 5 6 7 8 9 10 11 12 13 14 15 16 17 18 19 20 21 22 23 24 25 26 27 28 29 30 31 32 33 34 35 36 37 38 39 40 41 42 43 44 45 46 47 48 49 50

000
ASUS43 KBIS 271202
RWRND

NORTH DAKOTA REGIONAL WEATHER ROUNDUP
NATIONAL WEATHER SERVICE BISMARCK ND
700 AM CDT THU APR 27 2017

NOTE: "FAIR" INDICATES FEW OR NO CLOUDS BELOW 12,000 FEET WITH NO
SIGNIFICANT WEATHER AND/OR OBSTRUCTIONS TO VISIBILITY.


NDZ001>003-009>011-017-271300-
NORTHWEST NORTH DAKOTA

CITY           SKY/WX    TMP DP  RH WIND       PRES   REMARKS
WILLISTON      FAIR      27  22  81 N5        29.76S
6HR MIN TEMP:  23; 6HR MAX TEMP:  34;

MINOT          FAIR      22  18  85 NW6       29.76S WCI  14
MINOT AFB      CLEAR     24  20  85 N8        29.76F WCI  15
$$

NDZ018>021-031>035-040>046-271300-
SOUTHWEST NORTH DAKOTA

CITY           SKY/WX    TMP DP  RH WIND       PRES   REMARKS
BISMARCK       CLOUDY    31  25  78 W5        29.75R
6HR MIN TEMP:  30; 6HR MAX TEMP:  36;

DICKINSON      FAIR      20  16  84 SE3       29.70F
GARRISON         N/A     20  18  92 N8        29.75S WCI  10
6HR MIN TEMP:  19; 6HR MAX TEMP:  30;

HETTINGER ARPT CLOUDY    24  22  91 CALM      29.71S
$$

NDZ004>008-012>016-024-026-027-054-271300-
NORTHEAST NORTH DAKOTA

CITY           SKY/WX    TMP DP  RH WIND       PRES   REMARKS
GRAND FORKS    PTCLDY    23  20  88 N8        29.73R WCI  14
GRND FRKS AFB  CLEAR     22  20  90 N9        29.73F WCI  12
DEVILS LAKE    FAIR      27  23  85 N8        29.74S WCI  19
$$

NDZ022-023-025-028>030-036>039-047>053-271300-
SOUTHEAST NORTH DAKOTA

CITY           SKY/WX    TMP DP  RH WIND       PRES   REMARKS
FARGO          CLOUDY    26  22  84 N18       29.69R WCI  13
6HR MIN TEMP:  26; 6HR MAX TEMP:  28; 6HR PCP: TRACE;

JAMESTOWN      CLOUDY    29  26  89 N15       29.70S WCI  18
$$





USA.gov is the U.S. government's official web portal to all federal, state and local government web resources and services.